Flag for USA

Past Weather in Orange, Texas, USA — Yesterday and Last 2 Weeks

Now
84 °F

Mostly cloudy.


Feels Like: 85 °F
Forecast: 81 / 69 °F
Wind: 8 mph from Northeast

Location: Orange County Airport
Current Time: Sep 19, 2020 at 3:03:45 pm
Latest Report: Sep 19, 2020 at 2:15 pm
Visibility: 10 mi
Pressure29.97 "Hg
Humidity: 50%
Dew Point: 64 °F
Location of OrangeLocation

Past Weather in Orange — Graph

°F

Orange Temperature Yesterday

Maximum temperature yesterday: 87 °F (at 3:35 pm)
Minimum temperature yesterday: 72 °F (at 11:35 pm)
Average temperature yesterday: 79 °F

High & Low Weather Summary for the Past Weeks

 TemperatureHumidityPressure
High95 °F (Sep 11, 2:55 pm)95% (Sep 7, 5:35 am)30.22 "Hg (Sep 7, 5:35 am)
Low70 °F (Sep 19, 2:15 am)26% (Sep 18, 4:35 pm)29.83 "Hg (Sep 12, 5:35 pm)
Average83 °F72%29.98 "Hg
* Reported Sep 4 1:35 pm — Sep 19 1:55 pm, Orange. Weather by CustomWeather, © 2020

Note: Actual official high and low records may vary slightly from our data, if they occured in-between our weather recording intervals... More about our weather records

Orange Weather History for the Previous 24 Hours

Scroll right to see more
 ConditionsComfort  
Time TempWeatherWind HumidityBarometerVisibility
1:55 pm
Sat, Sep 19
85 °FPartly sunny.7 mph49%29.97 "Hg10 mi
1:35 pm84 °FBroken clouds.8 mph49%29.98 "Hg10 mi
1:15 pm84 °FScattered clouds.10 mph50%29.99 "Hg10 mi
12:55 pm83 °FScattered clouds.13 mph53%30.00 "Hg10 mi
12:35 pm83 °FSunny.9 mph53%30.00 "Hg10 mi
12:15 pm82 °FSunny.8 mph54%30.01 "Hg10 mi
11:55 am81 °FSunny.10 mph56%30.02 "Hg10 mi
11:35 am80 °FSunny.12 mph58%30.02 "Hg10 mi
11:15 am80 °FSunny.10 mph59%30.03 "Hg10 mi
10:55 am78 °FScattered clouds.12 mph61%30.03 "Hg10 mi
10:35 am78 °FScattered clouds.13 mph60%30.03 "Hg10 mi
10:15 am77 °FSunny.14 mph62%30.03 "Hg10 mi
9:55 am76 °FSunny.13 mph66%30.03 "Hg10 mi
9:35 am75 °FSunny.10 mph66%30.03 "Hg10 mi
9:15 am74 °FSunny.14 mph68%30.03 "Hg10 mi
8:55 am73 °FSunny.12 mph71%30.02 "Hg10 mi
8:15 am72 °FSunny.9 mph76%30.02 "Hg10 mi
7:55 am71 °FSunny.8 mph79%30.02 "Hg10 mi
7:35 am70 °FSunny.5 mph81%30.02 "Hg10 mi
6:55 am70 °FClear.5 mph81%30.01 "Hg10 mi
6:35 am71 °FClear.5 mph79%30.00 "Hg10 mi
5:55 am72 °FClear.5 mph76%30.00 "Hg10 mi
5:35 am72 °FClear.5 mph74%29.99 "Hg10 mi
5:15 am73 °FClear.7 mph72%29.98 "Hg10 mi
4:55 am73 °FPassing clouds.8 mph71%29.98 "Hg10 mi
4:35 am73 °FPassing clouds.10 mph72%29.98 "Hg10 mi
4:15 am73 °FOvercast.8 mph74%29.98 "Hg10 mi
3:55 am73 °FPassing clouds.6 mph76%29.99 "Hg10 mi
3:35 am72 °FClear.8 mph78%29.99 "Hg10 mi
3:15 am71 °FClear.5 mph80%29.99 "Hg10 mi
2:55 am71 °FClear.No wind81%29.99 "Hg10 mi
2:35 am70 °FClear.No wind80%29.99 "Hg10 mi
2:15 am70 °FClear.No wind81%30.00 "Hg10 mi
1:55 am70 °FClear.No wind78%30.00 "Hg10 mi
1:35 am71 °FClear.5 mph76%30.00 "Hg10 mi
1:15 am71 °FClear.5 mph73%29.99 "Hg10 mi
12:55 am71 °FClear.5 mph72%29.99 "Hg10 mi
12:35 am71 °FClear.5 mph69%30.00 "Hg10 mi
12:15 am71 °FClear.3 mph67%30.00 "Hg10 mi
11:55 pm
Fri, Sep 18
72 °FClear.3 mph66%30.00 "Hg10 mi
11:35 pm72 °FClear.3 mph67%30.01 "Hg10 mi
11:15 pm73 °FClear.No wind63%30.01 "Hg10 mi
10:55 pm73 °FClear.3 mph61%30.01 "Hg10 mi
10:35 pm73 °FClear.3 mph59%30.00 "Hg10 mi
10:15 pm73 °FClear.No wind59%30.00 "Hg10 mi
9:55 pm74 °FClear.No wind55%30.00 "Hg10 mi
9:35 pm75 °FClear.3 mph52%30.00 "Hg10 mi
9:15 pm76 °FClear.No wind49%29.99 "Hg10 mi
8:55 pm76 °FClear.3 mph47%29.99 "Hg10 mi
8:35 pm77 °FClear.3 mph44%29.98 "Hg10 mi
8:15 pm78 °FClear.7 mph41%29.98 "Hg10 mi
7:55 pm78 °FClear.6 mph40%29.97 "Hg10 mi
7:10 pm79 °FSunny.7 mph41%29.98 "Hg10 mi
6:55 pm80 °FSunny.6 mph41%29.97 "Hg10 mi
6:35 pm81 °FSunny.6 mph43%29.97 "Hg10 mi
6:15 pm82 °FSunny.9 mph37%29.96 "Hg10 mi
5:55 pm83 °FSunny.10 mph33%29.96 "Hg10 mi
5:35 pm84 °FSunny.14 mph31%29.95 "Hg10 mi
5:15 pm86 °FSunny.12 mph29%29.95 "Hg10 mi
4:55 pm84 °FSunny.8 mph31%29.95 "Hg10 mi
4:35 pm86 °FSunny.10 mph26%29.95 "Hg10 mi
4:15 pm86 °FSunny.9 mph27%29.95 "Hg10 mi
3:55 pm86 °FSunny.10 mph27%29.95 "Hg10 mi
3:35 pm87 °FSunny.10 mph33%29.96 "Hg10 mi
Weather by CustomWeather, © 2020

See weather overview